Regional Weather Roundup
Issued by NWS

Home | Current Version | Previous Version | Text Only | Print | Product List | Glossary Off
Versions: 1 2 3 4 5 6 7 8 9 10 11 12 13 14 15 16 17 18 19 20 21 22 23 24 25

000
ASUS45 KBOI 170610
RWRID

IDAHO REGIONAL WEATHER ROUNDUP
NATIONAL WEATHER SERVICE BOISE ID
1100 PM MST FRI FEB 16 2018

NOTE: "FAIR" INDICATES FEW OR NO CLOUDS BELOW 12000 FEET
WITH NO SIGNIFICANT WEATHER AND/OR OBSTRUCTIONS TO VISIBILITY

IDZ012-014-170700-
SOUTHWEST IDAHO


CITY           SKY/WX    TMP DP  RH WIND       PRES   REMARKS
BOISE          CLOUDY    35  25  66 SE7       30.17R WCI  29
CALDWELL       MOCLDY    32  25  75 CALM      30.19R
MOUNTAIN HOME  CLOUDY    33  33 100 CALM      30.17S
$$

IDZ016-017-170700-
SOUTHCENTRAL IDAHO


CITY           SKY/WX    TMP DP  RH WIND       PRES   REMARKS
BURLEY         CLOUDY    35  22  58 W14       30.12S WCI  26
JEROME         CLOUDY    32  22  66 W6        30.14F WCI  26
TWIN FALLS     CLOUDY    37  25  61 W15       30.14F WCI  28
$$

IDZ019>023-170700-
SOUTHEAST IDAHO


CITY           SKY/WX    TMP DP  RH WIND       PRES   REMARKS
IDAHO FALLS    CLEAR     25  19  78 S18       30.04R WCI  11
POCATELLO      PTCLDY    30  20  66 SW18      30.11R WCI  18
REXBURG        CLEAR     24  19  81 S7        30.02R WCI  16
$$

IDZ006-010-011-018-031-032-170700-
CENTRAL IDAHO MOUNTAINS


CITY           SKY/WX    TMP DP  RH WIND       PRES   REMARKS
MCCALL         CLOUDY    25  22  88 N3        30.08R
HAILEY         CLEAR     23  18  80 SE5       30.07R WCI  17
STANLEY          N/A     28  14  55 W9G22     30.06R WCI  19
SALMON         CLOUDY    30  24  78 CALM      29.99R
CHALLIS        CLOUDY    35  14  42 S9        30.00R WCI  28
$$

IDZ002-004-006-007-026-170700-
NORTHERN IDAHO


CITY           SKY/WX    TMP DP  RH WIND       PRES   REMARKS
LEWISTON       CLOUDY    45  35  68 W7        30.10R
LOWELL           N/A     33  33 100 CALM      30.13R
COEUR D`ALENE  LGT SNOW  23  21  93 SE3       30.06R FOG
MULLAN PASS    CLOUDY    20  19  96 NW7       29.89R FOG     WCI  11
$$




USA.gov is the U.S. government's official web portal to all federal, state and local government web resources and services.